TimeCDT,TemperatureF,Dew PointF,Humidity,Sea Level PressureIn,VisibilityMPH,Wind Direction,Wind SpeedMPH,Gust SpeedMPH,PrecipitationIn,Events,Conditions,WindDirDegrees,DateUTC
12:50 AM,66.2,55.4,68,29.74,8.0,NE,5.8,-,N/A,,Scattered Clouds,40,2013-09-13 05:50:00
1:50 AM,64.4,55.4,73,30.10,8.0,Calm,Calm,-,N/A,,Scattered Clouds,0,2013-09-13 06:50:00
2:50 AM,64.4,55.4,73,30.08,8.0,Calm,Calm,-,N/A,,Scattered Clouds,0,2013-09-13 07:50:00
3:46 AM,64.4,55.4,73,29.69,8.0,Calm,Calm,-,N/A,,Scattered Clouds,0,2013-09-13 08:46:00
4:44 AM,64.4,55.4,73,30.05,8.0,NE,9.2,-,N/A,,Scattered Clouds,40,2013-09-13 09:44:00
6:45 AM,62.6,55.4,77,29.66,8.0,Calm,Calm,-,N/A,,Mostly Cloudy,0,2013-09-13 11:45:00
7:50 AM,62.6,55.4,77,30.05,10.0,NE,6.9,-,N/A,,Mostly Cloudy,50,2013-09-13 12:50:00
8:42 AM,66.2,55.4,68,30.06,10.0,NE,8.1,-,N/A,,Mostly Cloudy,40,2013-09-13 13:42:00
9:51 AM,69.8,55.4,60,29.69,10.0,NE,8.1,-,N/A,,Mostly Cloudy,40,2013-09-13 14:51:00
10:45 AM,71.6,57.2,60,30.09,10.0,NE,16.1,-,N/A,,Mostly Cloudy,40,2013-09-13 15:45:00
11:49 AM,73.4,55.4,53,30.06,10.0,NNE,8.1,-,N/A,,Overcast,30,2013-09-13 16:49:00
12:48 PM,73.4,55.4,53,29.65,10.0,NE,17.3,-,N/A,,Overcast,50,2013-09-13 17:48:00
1:44 PM,75.2,55.4,50,30.03,10.0,ENE,8.1,-,N/A,,Overcast,70,2013-09-13 18:44:00
2:44 PM,73.4,55.4,53,30.01,10.0,ENE,11.5,24.2,N/A,,Mostly Cloudy,60,2013-09-13 19:44:00
3:48 PM,75.2,55.4,50,29.59,10.0,NE,11.5,-,N/A,,Mostly Cloudy,50,2013-09-13 20:48:00
4:50 PM,77.0,55.4,47,29.98,10.0,NE,13.8,-,N/A,,Mostly Cloudy,50,2013-09-13 21:50:00
5:43 PM,73.4,55.4,53,29.98,10.0,ENE,17.3,-,N/A,,Scattered Clouds,70,2013-09-13 22:43:00
6:50 PM,71.6,53.6,53,29.59,10.0,NE,13.8,-,N/A,,Scattered Clouds,50,2013-09-13 23:50:00
7:50 PM,66.2,53.6,64,29.99,10.0,East,9.2,-,N/A,,Mostly Cloudy,80,2013-09-14 00:50:00
8:45 PM,66.2,53.6,64,30.00,8.0,ENE,9.2,-,N/A,,Mostly Cloudy,70,2013-09-14 01:45:00
9:53 PM,64.4,53.6,68,29.78,8.0,East,3.5,-,N/A,,Mostly Cloudy,100,2013-09-14 02:53:00
10:48 PM,62.6,53.6,72,30.06,8.0,SSW,4.6,-,N/A,,Mostly Cloudy,200,2013-09-14 03:48:00
11:42 PM,64.4,53.6,68,30.06,8.0,NE,5.8,-,N/A,,Mostly Cloudy,50,2013-09-14 04:42:00